Ogden, UT

3:33 PM MST on February 23, 2017 (GMT -0700)
Ogden-Hinckley

Weather History for KOGD - July, 2013

Change the Weather History Date:

Thursday, July 18, 2013

  Actual Average Record
Temperature  
Mean Temperature 82 °F -  
Max Temperature 97 °F 93 °F 102 °F (1931)
Min Temperature 69 °F 61 °F 49 °F (1944)
Cooling Degree Days 18    
Growing Degree Days 32 (Base 50)    
Moisture  
Dew Point 52 °F    
Average Humidity 37    
Maximum Humidity 58    
Minimum Humidity 17    
Precipitation  
Precipitation 0.00 in - - ()
Sea Level Pressure  
Sea Level Pressure 29.91 in    
Wind  
Wind Speed 5 mph (West)    
Max Wind Speed 12 mph    
Max Gust Speed -    
Visibility 10 miles    
Events      
Averages and records for this station are not official NWS values.
T = Trace of Precipitation, MM = Missing Value Source: NWS Daily Summary

Daily Weather History Graph

Daily Weather History Graph

Search for Another Location

Airport or City:

Trip Planner

Search our weather history database for the weather conditions in past years. The results will help you decide how hot, cold, wet, or windy it might be!

Date:

Astronomy

Jul. 18, 2013 Rise Set
Actual Time 6:10 AM MDT 8:57 PM MDT
Civil Twilight 5:38 AM MDT 9:29 PM MDT
Nautical Twilight 4:57 AM MDT 10:10 PM MDT
Astronomical Twilight 4:11 AM MDT 10:56 PM MDT
Moon 4:57 PM MDT (7/18) 2:04 AM MDT (7/18)
Length of Visible Light 15h 50m
Length of Day
14h 46m
Waxing Gibbous, 78% of the Moon is Illuminated
Jul 18
Waxing Gibbous
Jul 22
Full
Jul 29
Last Quarter
Aug 6
New
Aug 14
First Quarter

Hourly Weather History & Observations

Time (MDT) Temp. Heat Index Dew Point Humidity Pressure Visibility Wind Dir Wind Speed Gust Speed Precip Events Conditions
12:53 AM 78.1 °F - 52.0 °F 40% 29.93 in 10.0 mi SE 5.8 mph - N/A   Clear
1:53 AM 73.9 °F - 54.0 °F 50% 29.93 in 10.0 mi Calm Calm - N/A   Clear
2:53 AM 72.0 °F - 53.1 °F 51% 29.93 in 10.0 mi South 5.8 mph - N/A   Clear
3:53 AM 71.1 °F - 54.0 °F 55% 29.94 in 10.0 mi South 3.5 mph - N/A   Clear
4:53 AM 69.1 °F - 54.0 °F 58% 29.94 in 10.0 mi SW 5.8 mph - N/A   Clear
5:53 AM 69.1 °F - 54.0 °F 58% 29.94 in 10.0 mi WSW 5.8 mph - N/A   Clear
6:53 AM 72.0 °F - 53.1 °F 51% 29.97 in 10.0 mi NW 3.5 mph - N/A   Clear
7:53 AM 73.0 °F - 54.0 °F 51% 29.98 in 10.0 mi South 5.8 mph - N/A   Clear
8:53 AM 77.0 °F - 54.0 °F 45% 29.98 in 10.0 mi Calm Calm - N/A   Clear
9:53 AM 80.1 °F 80.1 °F 55.0 °F 42% 29.98 in 10.0 mi South 3.5 mph - N/A   Clear
10:53 AM 82.9 °F - 52.0 °F 34% 29.97 in 10.0 mi Variable 3.5 mph - N/A   Clear
11:53 AM 88.0 °F 85.7 °F 53.1 °F 30% 29.96 in 10.0 mi Variable 3.5 mph - N/A   Clear
12:53 PM 88.0 °F 85.9 °F 54.0 °F 31% 29.95 in 10.0 mi WNW 3.5 mph - N/A   Clear
1:53 PM 91.0 °F 88.9 °F 55.0 °F 29% 29.92 in 10.0 mi Calm Calm - N/A   Clear
2:53 PM 91.9 °F 90.0 °F 55.0 °F 29% 29.91 in 10.0 mi NW 6.9 mph - N/A   Clear
3:53 PM 93.9 °F - 50.0 °F 22% 29.87 in 10.0 mi NW 6.9 mph - N/A   Clear
4:53 PM 96.1 °F - 45.0 °F 17% 29.86 in 10.0 mi WNW 6.9 mph - N/A   Clear
5:53 PM 96.1 °F - 48.9 °F 20% 29.85 in 10.0 mi NNW 11.5 mph - N/A   Clear
6:53 PM 95.0 °F - 46.9 °F 19% 29.83 in 10.0 mi NNW 6.9 mph - N/A   Clear
7:53 PM 91.9 °F - 46.0 °F 21% 29.83 in 10.0 mi NNW 6.9 mph - N/A   Clear
8:53 PM 87.1 °F - 48.0 °F 26% 29.85 in 10.0 mi NNW 6.9 mph - N/A   Clear
9:53 PM 84.9 °F - 52.0 °F 32% 29.86 in 10.0 mi NNE 5.8 mph - N/A   Clear
10:53 PM 80.1 °F - 52.0 °F 38% 29.88 in 10.0 mi South 4.6 mph - N/A   Clear
11:53 PM 75.9 °F - 48.9 °F 38% 29.88 in 10.0 mi Calm Calm - N/A   Clear